Other Public Products
Issued by NWS Grand Forks, ND

Home | Current Version | Previous Version | Graphics & Text | Print | Product List | Glossary On
Versions: 1 2 3 4 5 6 7 8 9 10 11 12 13 14 15 16 17 18 19 20 21 22 23 24 25 26 27 28 29 30 31 32 33 34 35 36 37 38 39 40 41 42 43 44 45 46 47 48 49 50
000
FPUS83 KFGF 201510
OPUFGF
PRAIRIE TO PINES WEATHER ROUNDUP
NATIONAL WEATHER SERVICE EASTERN NORTH DAKOTA/GRAND FORKS ND
1000 AM CDT SAT SEP 20 2014

 **SATELLITE DATA USED TO AUGMENT SKY COVER AT AUTOMATED STATIONS**
 *****  WEATHER ACROSS EASTERN NORTH DAKOTA  *****

CITY           SKY/WX    TMP DP  RH WIND       PRES   REMARKS
GRAND FORKS    PTSUNNY   60  52  74 SW5       29.79F
GRAND FORKS AF MOSUNNY   59  57  94 SW7       29.79F
GRAND CITY NWS   N/A     59 N/A N/A SW5         N/A
BUXTON         NOT AVBL
DEVILS LAKE    PTSUNNY   59  52  77 SW7       29.77F
FARGO          SUNNY     60  54  80 SW5       29.83S
WAHPETON ARPT  SUNNY     61  54  77 W8        29.85S
$$

 *****  WEATHER ACROSS CENTRAL AND WESTERN NORTH DAKOTA  *****

CITY           SKY/WX    TMP DP  RH WIND       PRES   REMARKS
JAMESTOWN      SUNNY     62  56  80 W7        29.83S
BISMARCK       PTSUNNY   59  52  77 W6        29.87F
MINOT          TSTM      55  51  86 W10       29.85F
MINOT AFB      DRIZZLE   54  54  99 NW13      29.85S
GARRISON         N/A     58  54  86 N22G33    29.89R
WILLISTON      MOSUNNY   60  50  69 W8        29.97R
DICKINSON      SUNNY     61  47  59 NW29G36   29.98R
HETTINGER      SUNNY     64  47  53 W21G29    29.99R
$$

 *****  OTHER OBSERVATIONS NORTHEAST NORTH DAKOTA  *****

CITY           SKY/WX    TMP DP  RH WIND       PRES   REMARKS
WALHALLA       CLOUDY    55  55 100 S7        29.75F
LANGDON        LGT RAIN  55  54  94 W10G17    29.78R
CAVALIER       CLOUDY    55  54  94 S10       29.77F
GRAFTON        FAIR      55  55 100 S7        29.78F
CANDO          PTSUNNY   57  54  88 NW17      29.82R
FORT TOTTEN      N/A     58  55  89 SW3       29.95
ROLLA          HVY RAIN  54  54 100 N18       29.80F
RUGBY          HVY RAIN  55  55 100 W22G33    29.85R VSB 1
 ***** THE ABOVE OBSERVATIONS ARE NON NWS ARE NOT QUALITY
        CONTROLLED AND MAY MIS-REPORT RAIN FOR SNOW...
$$

 *****  OTHER OBSERVATIONS SOUTHEAST NORTH DAKOTA *****

CITY           SKY/WX    TMP DP  RH WIND       PRES   REMARKS
COOPERSTOWN    NOT AVBL
VALLEY CITY    FAIR      63  63 100 W8        29.83S
OAKES            N/A     63  59  88 SW8       29.86S
GWINNER        SUNNY     63  59  88 SW8       29.87S
SHEYENNE NWR     N/A     62  57  84 SW5       29.95S
BUFFALO        NOT AVBL
WYNDMERE         N/A     64  59  82 W7          N/A
 ***** THE ABOVE OBSERVATIONS ARE NON NWS ARE NOT QUALITY
       CONTROLLED AND MAY MIS-REPORT RAIN FOR SNOW...
$$

  *****  WEATHER ACROSS NORTHERN MINNESOTA  *****

CITY           SKY/WX    TMP DP  RH WIND       PRES   REMARKS
FLAG ISLAND    CLOUDY    50  46  87 W13       29.74R
WARROAD        PTSUNNY   50  46  87 W7        29.77R
ROSEAU         CLOUDY    50  45  81 W7        29.78S
HALLOCK        PTSUNNY   57  54  88 S5        29.78S
THF RVR FALLS  CLOUDY    55  52  88 W5        29.80S
HALSTAD          N/A     60  52  74 S5          N/A
FOSSTON        CLOUDY    57  52  82 W7        29.81S
BAUDETTE       MOSUNNY   54  48  80 NW7       29.75S
WASKISH        MOSUNNY   55  48  76 W8        29.77S
CROOKSTON      MOSUNNY   57  52  82 CALM      29.81S
$$
  *****  WEATHER ACROSS CENTRAL AND WEST MINNESOTA  *****

CITY           SKY/WX    TMP DP  RH WIND       PRES   REMARKS
BEMIDJI        CLOUDY    57  52  83 NW13      29.79S
PARK RAPIDS    CLOUDY    59  54  83 NW13      29.81S
WADENA         CLOUDY    57  54  88 NW6       29.83S
DETROIT LAKES  CLOUDY    57  54  88 W5        29.84S
MOORHEAD       SUNNY     59  57  94 SW3       29.84S
FERGUS FALLS   CLOUDY    57  54  88 W6        29.86R
ELBOW LAKE     CLOUDY    57  55  92 W5        29.86R
MORRIS MN      SUNNY     63  57  82 NW6       29.85S
STAPLES        CLOUDY    57  54  88 NW12      29.83R
WHEATON        SUNNY     63  55  77 W6        29.88R
$$
  *****  WEATHER ELSEWHERE ACROSS MINNESOTA  *****

CITY           SKY/WX    TMP DP  RH WIND       PRES   REMARKS
DULUTH         CLOUDY    62  53  72 NW16G23   29.72S
INTRNTL FALLS  CLOUDY    53  51  93 W7        29.73R FOG
ELY            CLOUDY    55  54  94 W7        29.70R FOG
CLOQUET        CLOUDY    61  52  72 W17G28    29.74R
BRAINERD       CLOUDY    58  53  84 NW9       29.82R
HIBBING        CLOUDY    59  51  75 NW14      29.74S
ALEXANDRIA     PTSUNNY   58  55  90 NW9       29.86R
SAINT CLOUD    SUNNY     66  57  72 NW16      29.81R
MINNEAPOLIS    PTSUNNY   68  58  70 W14       29.80R
$$

  *****  WEATHER ACROSS SOUTH DAKOTA  *****

CITY           SKY/WX    TMP DP  RH WIND       PRES   REMARKS
SIOUX FALLS    MOSUNNY   70  59  68 NW5       29.91R
BROOKINGS      NOT AVBL
WATERTOWN      SUNNY     64  58  80 W7        29.90R
HURON          SUNNY     68  55  63 W5        29.92R
SISSETON         N/A     67  57  70 NW7       29.86R
ABERDEEN       SUNNY     66  56  70 W6        29.89S
MITCHELL       SUNNY     67  57  70 NW3       29.94R
PIERRE         SUNNY     66  52  60 W12       29.95R
MOBRIDGE       MOSUNNY   63  52  67 W6        29.90R
RAPID CITY     SUNNY     69  48  47 NW12      30.09R
$$

  *****  SOME WEATHER IN NEARBY STATES *****

CITY           SKY/WX    TMP DP  RH WIND       PRES   REMARKS
GLASGOW MT     SUNNY     57  47  69 W10       30.09R
GREAT FALLS MT SUNNY     59  41  51 CALM      30.24R
CHEYENNE WY    SUNNY     62  45  53 NW3       30.29R
SCOTTSBLUFF NE SUNNY     61  49  64 NW9       30.18R
OMAHA NE       CLOUDY    72  65  78 CALM      29.93R
DES MOINES IA  CLOUDY    72  67  84 W12       29.90R
DAVENPORT IA   CLOUDY    67  63  87 SW7       29.85S
CHICAGO IL     CLOUDY    69  60  73 SW13G23   29.86F
EAU CLAIRE WI  CLOUDY    69  61  75 NW12      29.75R
LA CROSSE WI   CLOUDY    69  63  81 SW3       29.75F
$$

  *****  SOME NATIONAL WEATHER *****

CITY           SKY/WX    TMP DP  RH WIND       PRES   REMARKS
LA GUARDIA NY  PTSUNNY   71  55  56 S12G21    30.26F
RALEIGH NC     MOSUNNY   73  58  59 NE12      30.20F
ATLANTA GA     CLOUDY    72  62  71 E12       30.17S
NEW ORLEANS LA MOSUNNY   82  70  66 NE16      29.99R
OKLAHOMA CITY  PTSUNNY   76  70  82 S10       30.04R
ALBUQUERQUE NM SUNNY     66  57  72 N8        30.18R
SALT LAKE CITY SUNNY     63  51  65 SE3       30.18R
LOS ANGELES CA CLOUDY    69  62  78 CALM      29.94R
BOISE ID       SUNNY     63  45  51 SE13      30.13R
SEATTLE WA     CLOUDY    59  56  89 N10       30.11S FOG
$$

*** WEATHER ACROSS MANITOBA...SASKATCHEWAN AND ONTARIO ***
                ***ONTARIO***

CITY           SKY/WX    TMP DP  RH WIND       PRES   REMARKS
GERALDTON      LGT RAIN  54  54 100 NE12      29.54R
THUNDER BAY    PTSUNNY   63  59  88 NW14      29.55R
SIOUX LOOKOUT  CLOUDY    55  54  94 NW6       29.66R
TORONTO        PTSUNNY   70  59  68 SW20G29   29.96F
BIG TROUT LK   PTSUNNY   43  34  70 N8        29.70S
PICKLE LAKE    CLOUDY    46  43  87 VRB2      29.68R
DRYDEN         PTSUNNY   55  54  94 NW6       29.68S
KENORA         PTSUNNY   52  48  87 W6        29.73R
$$
                *** MANITOBA***

CITY           SKY/WX    TMP DP  RH WIND       PRES   REMARKS
BRANDON        LGT RAIN  54  52  94 NW13G20   29.79R
DAUPHIN        LGT RAIN  54  52  94 SW3       29.73F
ISLAND LAKE    NOT AVBL
PILOT MOUND    NOT AVBL
THE PAS        MOSUNNY   54  48  82 W13       29.64S
THOMPSON       LGT RAIN  41  41 100 E8        29.69R
WINNIPEG       PTSUNNY   52  50  93 S9        29.74F
LYNN LAKE      LGT RAIN  41  41 100 E8        29.66R
CHURCHILL      CLOUDY    39  36  87 N10       29.77R
GILLAM         PTSUNNY   39  34  81 NE3       29.76R
$$
                ***SASKATCHEWAN***

CITY           SKY/WX    TMP DP  RH WIND       PRES   REMARKS
ESTEVAN        MOSUNNY   55  55 100 NW16G24   29.93R
KINDERSLEY     MOSUNNY   52  41  66 NW16      30.08R
LLOYDMINSTER   NOT AVBL
PRINCE ALBERT  MOSUNNY   57  43  58 NW17G28   29.81R
REGINA         MOSUNNY   55  50  82 W17G24    29.95R



USA.gov is the U.S. government's official web portal to all federal, state and local government web resources and services.